Hourly Data Report for September 07, 2020

OTTAWA INTL A
ONTARIO
Current Station Operator: NAVCAN

45°19'00.000" N
75°40'00.000" W
114.90 m
6106001
71628
YOW

Download Data

Hourly Data (September 2020)
Hourly Data Report for September 7, 2020
TIME Temp Definition
°C
Dew Point Definition
°C
Rel Hum Definition
%
Wind Dir Definition
10's deg

Wind Spd Definition
km/h
Visibility Definition
km
Stn Press Definition
kPa
Hmdx Definition


Wind Chill Definition


Weather Definition


00:00 11.5 9.2 86 12 15 24.1 100.17     LegendNANA
01:00 11.9 9.5 85 11 19 24.1 99.99     Mainly Clear
02:00 11.8 9.6 86 11 16 24.1 99.77     LegendNANA
03:00 12.1 9.7 85 13 12 24.1 99.78     LegendNANA
04:00 13.2 10.8 86 14 13 24.1 99.71     Mostly Cloudy
05:00 13.8 11.7 87 15 17 24.1 99.61     LegendNANA
06:00 15.3 12.9 86 15 20 24.1 99.54     LegendNANA
07:00 17.9 13.7 76 17 25 24.1 99.47     Cloudy
08:00 17.9 14.3 79 17 23 24.1 99.50     Rain
09:00 18.1 15.7 86 18 19 24.1 99.44     Rain
10:00 21.4 16.1 71 18 26 24.1 99.39 26   Mostly Cloudy
11:00 23.8 16.8 64 19 29 24.1 99.39 29   LegendNANA
12:00 24.2 16.6 62 19 37 24.1 99.33 29   LegendNANA
13:00 24.8 16.6 60 21 40 24.1 99.33 30   Mostly Cloudy
14:00 23.0 15.5 62 21 30 24.1 99.38 27   LegendNANA
15:00 22.2 15.8 66 22 30 24.1 99.49 27   LegendNANA
16:00 21.5 16.7 74 20 26 24.1 99.53 27   Cloudy
17:00 21.7 16.0 69 21 20 24.1 99.60 26   LegendNANA
18:00 19.4 17.8 90 23 19 6.4 99.67     Moderate Rain Showers,Fog
19:00 19.2 17.5 89 23 15 24.1 99.78     Mostly Cloudy
20:00 18.7 16.9 89 23 9 24.1 99.89     LegendNANA
21:00 18.3 15.8 85 26 16 24.1 100.02     LegendNANA
22:00 17.8 15.0 84 25 15 24.1 100.12     Cloudy
23:00 17.5 14.1 80 27 20 24.1 100.21     LegendNANA

Notes on Data Quality.

Legend

  • E = Estimated
  • M = Missing
  • NA = Not Available*
  • [empty] = Indicates an unobserved value
Date modified: